Weather History for Messina, Italy

Change the Weather History Date:

Tuesday, November 20, 2012

  Actual Average (LICR) Record (LICR)
Temperature  
Mean Temperature 63 °F -  
Max Temperature 68 °F 62 °F 71 °F (2006)
Min Temperature 58 °F 54 °F 46 °F (2007)
Degree Days  
Heating Degree Days 2    
Growing Degree Days 13 (Base 50)    
Moisture  
Dew Point 53 °F    
Average Humidity 67    
Maximum Humidity 82    
Minimum Humidity 47    
Precipitation  
Precipitation 0.02 in 0.15 in - ()
Sea Level Pressure  
Sea Level Pressure 29.85 in    
Wind  
Wind Speed 3 mph ()    
Max Wind Speed 10 mph    
Max Gust Speed -    
Visibility 6.4 miles    
Events Rain    
Averages and records for this station are not official NWS values.
T = Trace of Precipitation, MM = Missing Value Source: Averaged Metar Reports

Daily Weather History Graph

Daily Weather History Graph

Search for Another Location

Airport:

Trip Planner

Search our weather history database for the weather conditions in past years. The results will help you decide how hot, cold, wet, or windy it might be!

Date:

Astronomy

Nov. 20, 2012 Rise Set
Actual Time 6:44 AM CET 4:42 PM CET
Civil Twilight 6:16 AM CET 5:10 PM CET
Nautical Twilight 5:43 AM CET 5:42 PM CET
Astronomical Twilight 5:12 AM CET 6:14 PM CET
Moon 12:12 PM CET (11/20) 11:52 PM CET (11/20)
Length of Visible Light 10h 54m
Length of Day
9h 57m
Waxing Crescent, 48% of the Moon is Illuminated
Nov 20
Waxing Crescent
Nov 20
First Quarter
Nov 28
Full
Dec 6
Last Quarter
Dec 13
New

Hourly Weather History & Observations

Time (CET) Temp. Dew Point Humidity Pressure Visibility Wind Dir Wind Speed Gust Speed Precip Events Conditions
12:55 AM 60.8 °F 53.6 °F 77% 29.80 in 6.2 mi WNW 2.3 mph - N/A   Scattered Clouds
1:55 AM 60.8 °F 53.6 °F 77% 29.80 in 6.2 mi West 4.6 mph - N/A   Scattered Clouds
5:55 AM 60.8 °F 51.8 °F 72% 29.80 in 6.2 mi WNW 3.5 mph - N/A   Scattered Clouds
6:55 AM 60.8 °F 53.6 °F 77% 29.80 in 6.2 mi Calm Calm - N/A   Scattered Clouds
7:00 AM 61 °F 54 °F 72% 29.82 in 6 mi Calm Calm - -   Overcast
7:55 AM 60.8 °F 55.4 °F 82% 29.83 in 6.2 mi WNW 2.3 mph - N/A   Scattered Clouds
8:55 AM 64.4 °F 53.6 °F 68% 29.83 in 6.2 mi WNW 4.6 mph - N/A   Scattered Clouds
9:55 AM 64.4 °F 53.6 °F 68% 29.83 in 6.2 mi WNW 5.8 mph - N/A   Scattered Clouds
10:55 AM 66.2 °F 53.6 °F 64% 29.86 in 6.2 mi NNW 6.9 mph - N/A   Scattered Clouds
11:55 AM 66.2 °F 53.6 °F 64% 29.86 in 6.2 mi NW 6.9 mph - N/A   Scattered Clouds
12:55 PM 68.0 °F 51.8 °F 56% 29.83 in 6.2 mi NW 8.1 mph - N/A   Partly Cloudy
1:00 PM 68 °F 53 °F 47% 29.85 in 12 mi NW 8.1 mph - -   Partly Cloudy
1:55 PM 66.2 °F 51.8 °F 60% 29.83 in 6.2 mi NNW 5.8 mph - N/A   Partly Cloudy
2:55 PM 66.2 °F 53.6 °F 64% 29.83 in 6.2 mi North 10.4 mph - N/A   Partly Cloudy
3:55 PM 66.2 °F 53.6 °F 64% 29.86 in 6.2 mi NW 6.9 mph - N/A   Partly Cloudy
4:55 PM 64.4 °F 53.6 °F 68% 29.86 in 6.2 mi Variable 3.5 mph - N/A Rain Light Rain
5:55 PM 64.4 °F 53.6 °F 68% 29.86 in 6.2 mi Calm Calm - N/A   Partly Cloudy
6:55 PM 64.4 °F 53.6 °F 68% 29.89 in 6.2 mi Calm Calm - N/A   Scattered Clouds
7:00 PM 64 °F 54 °F 62% 29.89 in 6 mi Calm Calm - -   Partly Cloudy
7:55 PM 64.4 °F 53.6 °F 68% 29.89 in 6.2 mi NW 2.3 mph - N/A   Scattered Clouds
8:55 PM 62.6 °F 51.8 °F 68% 29.89 in 6.2 mi NW 2.3 mph - N/A   Scattered Clouds
9:55 PM 62.6 °F 51.8 °F 68% 29.89 in 6.2 mi West 3.5 mph - N/A   Scattered Clouds
10:55 PM 62.6 °F 51.8 °F 68% 29.92 in 6.2 mi West 2.3 mph - N/A   Scattered Clouds
11:55 PM 62.6 °F 51.8 °F 68% 29.92 in 6.2 mi West 1.2 mph - N/A   Scattered Clouds